Weather History for PHNL - February, 2011

Change the Weather History Date:

Thursday, February 10, 2011

  Actual Average Record
Temperature  
Mean Temperature 75 °F 73 °F  
Max Temperature 79 °F 80 °F 85 °F (1969)
Min Temperature 71 °F 66 °F 56 °F (1903)
Degree Days  
Heating Degree Days 0 0  
Month to date heating degree days 0 0  
Since 1 July heating degree days 0 0  
Cooling Degree Days 10 8  
Month to date cooling degree days 91 80  
Year to date cooling degree days 358 334  
Growing Degree Days 25 (Base 50)    
Moisture  
Dew Point 69 °F    
Average Humidity 84    
Maximum Humidity 93    
Minimum Humidity 74    
Precipitation  
Precipitation 0.03 in 0.06 in 1.34 in (1916)
Month to date precipitation 1.54 0.63  
Year to date precipitation 4.41 2.94  
Snow  
Snow 0.00 in - - ()
Month to date snowfall 0.0  
Since 1 July snowfall 0.0  
Snow Depth 0.00 in    
Sea Level Pressure  
Sea Level Pressure 29.95 in    
Wind  
Wind Speed 5 mph (SSW)    
Max Wind Speed 14 mph    
Max Gust Speed 17 mph    
Visibility 9 miles    
Events Rain    
T = Trace of Precipitation, MM = Missing Value Source: NWS Daily Summary

Daily Weather History Graph

Daily Weather History Graph

Search for Another Location

Airport or City:

Trip Planner

Search our weather history database for the weather conditions in past years. The results will help you decide how hot, cold, wet, or windy it might be!

Date:

Astronomy

Feb. 10, 2011 Rise Set
Actual Time 7:05 AM HST 6:27 PM HST
Civil Twilight 6:42 AM HST 6:49 PM HST
Nautical Twilight 6:15 AM HST 7:16 PM HST
Astronomical Twilight 5:49 AM HST 7:42 PM HST
Moon 11:30 AM HST (2/10) 12:12 AM HST (2/10)
Length of Visible Light 12h 07m
Length of Day
11h 22m
Waxing Crescent, 46% of the Moon is Illuminated
Feb 10
Waxing Crescent
Feb 10
First Quarter
Feb 17
Full
Feb 24
Last Quarter
Mar 4
New

Hourly Weather History & Observations

Time (HST) Temp. Dew Point Humidity Pressure Visibility Wind Dir Wind Speed Gust Speed Precip Events Conditions
12:53 AM 72.0 °F 66.0 °F 81% 29.96 in 10.0 mi Calm Calm - N/A   Mostly Cloudy
1:53 AM 72.0 °F 66.9 °F 84% 29.94 in 10.0 mi Calm Calm - N/A   Mostly Cloudy
2:53 AM 72.0 °F 66.9 °F 84% 29.93 in 10.0 mi NNW 3.5 mph - N/A   Mostly Cloudy
3:53 AM 72.0 °F 68.0 °F 87% 29.93 in 10.0 mi West 5.8 mph - 0.00 in Rain Light Rain
4:53 AM 71.1 °F 68.0 °F 90% 29.93 in 5.0 mi WSW 3.5 mph - 0.02 in Rain Light Rain
5:53 AM 71.1 °F 69.1 °F 93% 29.94 in 10.0 mi NE 3.5 mph - 0.00 in   Mostly Cloudy
6:53 AM 71.1 °F 69.1 °F 93% 29.96 in 10.0 mi Calm Calm - N/A   Mostly Cloudy
7:43 AM 71.6 °F 69.8 °F 94% 29.97 in 9.0 mi North 3.5 mph - N/A   Mostly Cloudy
7:53 AM 72.0 °F 69.1 °F 91% 29.97 in 9.0 mi Calm Calm - N/A   Mostly Cloudy
8:09 AM 73.4 °F 69.8 °F 88% 29.98 in 10.0 mi Calm Calm - 0.00 in   Mostly Cloudy
8:53 AM 73.9 °F 68.0 °F 82% 29.97 in 10.0 mi SSW 4.6 mph - 0.00 in   Scattered Clouds
9:53 AM 75.9 °F 68.0 °F 76% 29.98 in 10.0 mi South 8.1 mph - N/A   Mostly Cloudy
10:53 AM 77.0 °F 70.0 °F 79% 29.98 in 10.0 mi South 8.1 mph - N/A   Mostly Cloudy
11:53 AM 75.0 °F 71.1 °F 87% 29.96 in 7.0 mi SE 8.1 mph - 0.01 in Rain Light Rain
11:55 AM 75.2 °F 71.6 °F 89% 29.96 in 7.0 mi SE 9.2 mph - 0.00 in Rain Light Rain
12:10 PM 75.2 °F 71.6 °F 89% 29.96 in 8.0 mi SSE 9.2 mph - 0.00 in Rain Light Rain
12:53 PM 77.0 °F 71.1 °F 82% 29.94 in 8.0 mi SSE 9.2 mph - 0.00 in   Mostly Cloudy
1:53 PM 79.0 °F 69.1 °F 72% 29.91 in 10.0 mi South 12.7 mph - N/A   Scattered Clouds
2:53 PM 79.0 °F 69.1 °F 72% 29.91 in 10.0 mi SSW 11.5 mph - N/A   Scattered Clouds
3:53 PM 78.1 °F 69.1 °F 74% 29.91 in 10.0 mi SW 10.4 mph - N/A   Mostly Cloudy
4:53 PM 78.1 °F 69.1 °F 74% 29.91 in 10.0 mi SW 11.5 mph - N/A   Scattered Clouds
5:53 PM 77.0 °F 66.9 °F 71% 29.93 in 10.0 mi SW 9.2 mph - N/A   Scattered Clouds
6:53 PM 75.9 °F 68.0 °F 76% 29.95 in 10.0 mi SW 6.9 mph - N/A   Mostly Cloudy
7:53 PM 75.9 °F 69.1 °F 79% 29.96 in 10.0 mi SW 5.8 mph - N/A   Mostly Cloudy
8:53 PM 75.9 °F 68.0 °F 76% 29.97 in 10.0 mi SSW 4.6 mph - N/A   Mostly Cloudy
9:53 PM 75.9 °F 68.0 °F 76% 29.97 in 10.0 mi SSW 4.6 mph - N/A   Mostly Cloudy
10:53 PM 75.9 °F 68.0 °F 76% 29.98 in 10.0 mi SW 8.1 mph - N/A   Mostly Cloudy
11:32 PM 71.6 °F 66.2 °F 83% 29.98 in 10.0 mi NNW 12.7 mph - N/A   Mostly Cloudy
11:53 PM 71.1 °F 66.9 °F 87% 29.97 in 10.0 mi NNW 15.0 mph - 0.00 in Rain Light Rain